DW8915 Weather Reports


time (UTC)temp
C
wind
direction
speed
KPH
gust
KPH
rain 1hr
cm
rain 24hr
cm
rain mn
cm
humidity
%
barometer
mb
20260507103040 11 339 8.0 0.0 0.00 0.00 0.00 72 1015.0
20260507101537 12 28 6.4 0.0 0.00 0.00 0.00 70 1014.5
20260507100037 12 63 6.4 0.0 0.00 0.00 0.00 69 1014.6
20260507094530 12 26 6.4 0.0 0.00 0.00 0.00 68 1014.4
20260507093027 12 39 4.8 0.0 0.00 0.00 0.00 66 1014.3
20260507091526 13 33 6.4 0.0 0.00 0.00 0.00 65 1014.1
20260507090021 13 24 6.4 0.0 0.00 0.00 0.00 65 1014.0
20260507084517 13 44 6.4 0.0 0.00 0.00 0.00 64 1013.6
20260507083015 14 34 8.0 0.0 0.00 0.00 0.00 63 1013.4
20260507081512 14 11 8.0 0.0 0.00 0.00 0.00 63 1013.1
20260507080010 14 58 6.4 0.0 0.00 0.00 0.00 64 1013.3
20260507074508 14 49 4.8 0.0 0.00 0.00 0.00 63 1013.0
20260507073006 15 56 4.8 0.0 0.00 0.00 0.00 61 1012.9
20260507071504 15 71 4.8 0.0 0.00 0.00 0.00 60 1012.6
20260507070100 15 55 4.8 0.0 0.00 0.00 0.00 60 1012.6
20260507064610 16 70 4.8 0.0 0.00 0.00 0.00 60 1012.4
20260507063103 16 58 4.8 0.0 0.00 0.00 0.00 60 1012.1
20260507061552 16 74 4.8 0.0 0.00 0.00 0.00 60 1011.9
20260507060048 16 99 3.2 0.0 0.00 0.00 0.00 59 1011.5
20260507054546 17 65 4.8 0.0 0.00 0.00 0.00 58 1011.3
20260507053044 17 123 3.2 0.0 0.00 0.00 0.00 56 1011.1
20260507051541 17 30 4.8 0.0 0.00 0.00 0.00 54 1010.9
20260507050038 17 98 4.8 0.0 0.00 0.00 0.00 51 1010.8
20260507044537 18 49 6.4 0.0 0.00 0.00 0.00 50 1011.0
20260507043035 18 59 4.8 0.0 0.00 0.00 0.00 49 1010.7
20260507041542 18 47 6.4 0.0 0.00 0.00 0.00 48 1010.2
20260507040033 19 88 4.8 0.0 0.00 0.00 0.00 47 1009.9
20260507034540 19 109 4.8 0.0 0.00 0.00 0.00 46 1009.7
20260507033029 20 107 4.8 0.0 0.00 0.00 0.00 46 1009.3
20260507031529 20 71 4.8 0.0 0.00 0.00 0.00 44 1009.0
20260507030029 20 67 4.8 0.0 0.00 0.00 0.00 43 1008.8
20260507024531 21 60 6.4 0.0 0.00 0.00 0.00 42 1008.6
20260507023027 21 98 6.4 0.0 0.00 0.00 0.00 41 1008.1
20260507021528 22 86 6.4 0.0 0.00 0.00 0.00 39 1007.8
20260507020030 23 78 4.8 0.0 0.00 0.00 0.00 36 1007.6
20260507014527 23 106 4.8 0.0 0.00 0.00 0.00 35 1007.3
20260507013026 24 105 4.8 0.0 0.00 0.00 0.00 33 1007.2
20260507011527 25 96 4.8 0.0 0.00 0.00 0.00 31 1007.0
20260507010032 25 142 4.8 0.0 0.00 0.00 0.00 30 1006.8
20260507004526 25 97 3.2 0.0 0.00 0.00 0.00 30 1006.7
20260507003024 25 123 3.2 0.0 0.00 0.00 0.00 30 1006.5
20260507001529 25 169 1.6 0.0 0.00 0.00 0.00 30 1006.5
20260507000028 25 169 3.2 0.0 0.00 0.00 0.00 29 1006.4
20260506234542 26 140 3.2 0.0 0.00 0.00 0.00 29 1006.5
20260506233023 26 146 1.6 0.0 0.00 0.00 0.00 29 1006.5
20260506231523 26 166 3.2 0.0 0.00 0.00 0.00 29 1006.5
20260506230022 26 48 3.2 0.0 0.00 0.00 0.00 30 1006.6
20260506224527 26 117 3.2 0.0 0.00 0.00 0.00 31 1006.7
20260506223022 25 179 4.8 0.0 0.00 0.00 0.00 31 1006.7
20260506221520 25 175 3.2 0.0 0.00 0.00 0.00 32 1006.8
20260506220031 26 335 1.6 0.0 0.00 0.00 0.00 32 1006.8
20260506214519 26 263 1.6 0.0 0.00 0.00 0.00 33 1007.0
20260506213017 26 269 3.2 0.0 0.00 0.00 0.00 32 1007.2
20260506211519 25 292 1.6 0.0 0.00 0.00 0.00 32 1007.4
20260506210012 25 150 3.2 0.0 0.00 0.00 0.00 37 1007.6
20260506204512 24 82 3.2 0.0 0.00 0.00 0.00 36 1007.8
20260506203013 24 64 3.2 0.0 0.00 0.00 0.00 39 1008.0
20260506201513 23 104 3.2 0.0 0.00 0.00 0.00 41 1008.2
20260506200007 22 177 3.2 0.0 0.00 0.00 0.00 42 1008.3
20260506194505 22 185 3.2 0.0 0.00 0.00 0.00 46 1008.3
20260506193003 21 111 4.8 0.0 0.00 0.00 0.00 44 1008.5
20260506191502 21 115 4.8 0.0 0.00 0.00 0.00 47 1008.6
20260506190100 21 65 3.2 0.0 0.00 0.00 0.00 48 1008.8
20260506184559 21 63 3.2 0.0 0.00 0.00 0.00 49 1009.0
20260506183102 20 115 3.2 0.0 0.00 0.00 0.00 51 1009.1
20260506181625 18 13 4.8 0.0 0.00 0.00 0.00 53 1009.2
20260506180058 18 11 4.8 0.0 0.00 0.00 0.00 57 1009.4
20260506174555 17 55 3.2 0.0 0.00 0.00 0.00 58 1009.7
20260506173122 17 360 4.8 0.0 0.00 0.00 0.00 62 1009.8
20260506171601 16 360 6.4 0.0 0.00 0.00 0.00 63 1009.9
20260506164550 16 360 6.4 0.0 0.00 0.00 0.00 62 1009.8
20260506163050 15 360 6.4 0.0 0.00 0.00 0.00 63 1009.8
20260506161549 14 360 6.4 0.0 0.00 0.00 0.00 66 1009.7
20260506160059 13 360 8.0 0.0 0.00 0.00 0.00 66 1009.7
20260506154547 13 360 8.0 0.0 0.00 0.00 0.00 68 1009.4
20260506153043 12 360 6.4 0.0 0.00 0.00 0.00 67 1009.4
20260506151544 13 360 8.0 0.0 0.00 0.00 0.00 68 1009.2
20260506150040 12 360 6.4 0.0 0.00 0.00 0.00 68 1009.1
20260506144542 12 360 8.0 0.0 0.00 0.00 0.00 68 1008.9
20260506143037 12 360 6.4 0.0 0.00 0.00 0.00 69 1008.7
20260506141535 12 360 6.4 0.0 0.00 0.00 0.00 70 1008.4
20260506140035 12 360 9.7 0.0 0.00 0.00 0.00 71 1008.4
20260506134528 12 360 6.4 0.0 0.00 0.00 0.00 71 1008.3
20260506133024 12 360 6.4 0.0 0.00 0.00 0.00 71 1007.9
20260506131538 12 360 6.4 0.0 0.00 0.00 0.00 71 1007.5
20260506130032 12 360 6.4 0.0 0.00 0.00 0.00 71 1006.7
20260506124514 12 360 4.8 0.0 0.00 0.00 0.00 71 1006.4
20260506123008 12 360 4.8 0.0 0.00 0.00 0.00 70 1005.9
20260506121505 13 360 4.8 0.0 0.00 0.00 0.00 69 1005.7
20260506120003 14 65 3.2 0.0 0.00 0.00 0.00 67 1005.2
20260506114559 15 22 3.2 0.0 0.00 0.00 0.00 66 1005.1
20260506113056 15 17 3.2 0.0 0.00 0.00 0.00 64 1005.2
20260506111553 16 21 1.6 0.0 0.00 0.00 0.00 63 1005.3
20260506110049 16 92 1.6 0.0 0.00 0.00 0.00 61 1004.9
20260506104550 16 36 4.8 0.0 0.00 0.00 0.00 60 1004.8